Terug naar catalogus

CZ-6A DEB

ActiefPO
NORAD 63390·DEBRIS·🇨🇳 China

Gelanceerd Aug 6, 2024 vanaf Taiyuan Satellite Launch Center

Loading…

Volgende Passages (komende 24 uur)

TLE

VerouderendSource: Space-Track

Epoch: Sep 5, 2026, 07:17 UTC

1 63390U 24140ADM 26248.30400007  .00000610  00000-0  28138-3 0  9990
2 63390  89.0003 266.1569 0051493 293.5343  66.0442 14.19208434106813

Volg CZ-6A DEB in realtime met AllMySat

Download on the App Store